Volver al catálogo

FENGYUN 1C DEB

ActivoPO
NORAD 29889·DEBRIS·🇨🇳 China

Lanzado May 10, 1999 desde Taiyuan Satellite Launch Center

Loading…

Próximos Pases (próximas 24 horas)

TLE

ActualizadoSource: Space-Track

Época: Sep 13, 2026, 20:57 UTC

1 29889U 99025GK  26256.87295069  .00000312  00000-0  17088-3 0  9991
2 29889  99.5124  36.1510 0153192 353.0767 160.2563 14.13875707 12027

Sigue FENGYUN 1C DEB en tiempo real con AllMySat

Download on the App Store